Waarnemingen

Advertentie
Mijn weer
Twenthe, Nederland (6290): temperatuur & dauwpunt: 18.11.2017 17:00:00 - 24.11.2017 17:00:00 (CET)Twenthe, Nederland (6290): temperatuur 5cm: 18.11.2017 17:00:00 - 24.11.2017 17:00:00 (CET)Twenthe, Nederland (6290): windsnelheid & windstoten: 18.11.2017 17:00:00 - 24.11.2017 17:00:00 (CET)Twenthe, Nederland (6290): windrichting: 18.11.2017 17:00:00 - 24.11.2017 17:00:00 (CET)Twenthe, Nederland (6290): luchtdruk: 18.11.2017 17:00:00 - 24.11.2017 17:00:00 (CET)Twenthe, Nederland (6290): zicht: 18.11.2017 17:00:00 - 24.11.2017 17:00:00 (CET)Twenthe, Nederland (6290): neerslag: 18.11.2017 17:00:00 - 24.11.2017 17:00:00 (CET)
Datum & Tijd tt [°C] td [°C] tt 5cm [°C] ff [km/u] ff [kn] fx [km/u] fx [kn] dd ppp [hPa] vv [km] rr [mm]
24.11.2017 17:00:00 4,8 4,6 2,7 4 2 7 4 Z 1011,7 7 0,0
24.11.2017 16:00:00 6,6 5,3 6,2 7 4 - - ZZW 1011,3 39 0,0
24.11.2017 15:00:00 7,5 6,0 7,6 7 4 11 6 ZZW 1010,5 35 0,0
24.11.2017 14:00:00 7,7 5,5 8,0 7 4 11 6 WZW 1010,1 49 0,0
24.11.2017 13:00:00 7,5 6,2 8,1 7 4 - - W 1009,8 29 0,2
24.11.2017 12:00:00 6,9 6,1 7,0 14 8 22 12 WNW 1009,5 7 0,5
24.11.2017 11:00:00 7,0 6,5 6,9 11 6 14 8 ZW 1009,0 3,6 0,4
24.11.2017 10:00:00 7,0 6,6 7,0 4 2 - - ZW 1008,2 11 0,0
24.11.2017 09:00:00 6,7 6,4 6,6 4 2 7 4 NW 1007,5 10 0,0
24.11.2017 08:00:00 6,6 6,2 6,5 4 2 7 4 NW 1006,8 13 0,2
24.11.2017 07:00:00 7,0 6,9 6,7 4 2 - - ZO 1006,2 4,7 4,1
24.11.2017 06:00:00 7,1 6,8 6,8 4 2 4 2 OZO 1006,2 6 0,4
24.11.2017 05:00:00 7,3 6,7 7,0 0 0 11 6 N 1006,8 8 1,8
24.11.2017 04:00:00 7,9 5,8 7,1 11 6 - - ZZW 1006,9 19 0,0
24.11.2017 03:00:00 7,4 5,3 6,3 11 6 22 12 Z 1007,3 22 0,0
24.11.2017 02:00:00 7,1 4,7 6,1 14 8 22 12 Z 1007,9 25 0,0
24.11.2017 01:00:00 8,2 5,1 7,1 14 8 - - ZZW 1007,9 28 0,0
24.11.2017 00:00:00 8,5 5,0 7,5 18 10 29 16 ZZW 1008,1 29 0,0
23.11.2017 23:00:00 8,7 4,8 7,1 18 10 29 16 ZZW 1008,1 36 0,0
23.11.2017 22:00:00 8,3 4,4 6,8 18 10 - - ZZW 1007,9 47 0,0
23.11.2017 21:00:00 8,0 4,2 6,7 18 10 29 16 ZZW 1007,3 48 0,0
23.11.2017 20:00:00 8,3 4,3 7,0 18 10 29 16 ZW 1006,8 47 0,0
23.11.2017 19:00:00 8,9 4,3 7,0 18 10 - - ZZW 1006,2 49 0,0
23.11.2017 18:00:00 9,3 4,0 8,0 25 14 40 21 WZW 1005,2 50 0,0
23.11.2017 17:00:00 10,6 5,5 9,6 29 16 50 27 ZW 1003,5 50 0,0
23.11.2017 16:00:00 12,2 9,7 11,7 29 16 - - WZW 1002,5 44 1,7
23.11.2017 15:00:00 13,4 10,1 12,6 25 14 54 29 ZZW 1000,2 17 0,1
23.11.2017 14:00:00 14,2 9,3 13,5 29 16 47 25 ZZW 999,8 44 0,0
23.11.2017 13:00:00 13,2 10,0 12,5 25 14 - - ZZW 999,5 39 0,2
23.11.2017 12:00:00 11,8 9,5 11,3 22 12 58 31 ZZW 999,1 16 0,5
23.11.2017 11:00:00 13,6 6,8 13,1 36 19 61 33 Z 997,9 32 0,0
23.11.2017 10:00:00 13,5 5,8 12,8 32 18 - - Z 997,3 48 0,0
23.11.2017 09:00:00 13,1 5,1 12,1 36 19 54 29 Z 997,3 45 0,0
23.11.2017 08:00:00 12,6 4,3 11,5 29 16 47 25 Z 997,2 48 0,0
23.11.2017 07:00:00 11,7 4,0 10,8 25 14 - - Z 997,4 49 0,0
23.11.2017 06:00:00 11,4 3,6 10,4 25 14 43 23 Z 998,0 50 0,0
23.11.2017 05:00:00 11,8 3,1 10,6 29 16 43 23 Z 998,2 50 0,0
23.11.2017 04:00:00 10,8 3,0 9,7 25 14 - - Z 998,7 50 0,0
23.11.2017 03:00:00 11,0 3,0 9,9 25 14 40 21 Z 999,5 50 0,0
23.11.2017 02:00:00 11,5 2,8 9,8 25 14 40 21 Z 999,9 49 0,0
23.11.2017 01:00:00 11,4 2,7 9,5 22 12 - - Z 1000,6 48 0,0
23.11.2017 00:00:00 11,5 2,7 10,0 29 16 47 25 Z 1000,8 50 0,0
22.11.2017 23:00:00 10,6 3,2 9,4 25 14 43 23 Z 1001,4 49 0,0
22.11.2017 22:00:00 10,2 4,1 9,0 25 14 - - Z 1001,8 49 0,0
22.11.2017 21:00:00 10,2 4,5 9,1 25 14 40 21 Z 1002,1 48 0,0
22.11.2017 20:00:00 10,5 5,2 9,1 25 14 40 21 Z 1002,5 46 0,0
22.11.2017 19:00:00 11,1 5,7 9,8 29 16 - - Z 1002,9 40 0,0
22.11.2017 18:00:00 10,6 6,1 9,4 22 12 32 18 Z 1003,1 35 0,0
22.11.2017 17:00:00 11,0 6,5 9,8 22 12 32 18 Z 1003,9 33 0,0
22.11.2017 16:00:00 11,3 7,0 10,5 18 10 - - Z 1004,4 27 0,0
22.11.2017 15:00:00 11,7 7,5 11,5 18 10 43 23 Z 1005,1 23 0,0
22.11.2017 14:00:00 11,7 7,5 11,8 22 12 36 19 ZZW 1005,8 22 0,0
22.11.2017 13:00:00 11,1 7,7 11,0 22 12 - - ZZW 1006,2 19 0,0
22.11.2017 12:00:00 11,0 7,8 10,6 25 14 43 23 ZZW 1006,5 20 0,0
22.11.2017 11:00:00 11,0 8,0 10,8 25 14 43 23 ZZW 1006,3 23 0,0
22.11.2017 10:00:00 10,8 7,8 10,5 29 16 - - ZZW 1005,8 22 0,0
22.11.2017 09:00:00 10,5 7,8 10,0 25 14 40 21 ZZW 1005,6 20 0,0
22.11.2017 08:00:00 10,3 8,0 9,7 22 12 32 18 ZZW 1005,4 16 0,0
22.11.2017 07:00:00 9,6 8,7 9,3 22 12 - - ZZW 1005,2 3,1 0,5
22.11.2017 06:00:00 10,1 8,1 9,7 25 14 40 21 ZZW 1005,3 17 0,0
22.11.2017 05:00:00 9,7 8,4 9,4 22 12 43 23 ZZW 1005,6 7 0,1
22.11.2017 04:00:00 10,1 7,9 9,7 25 14 - - ZZW 1005,7 13 0,0
22.11.2017 03:00:00 10,0 7,6 9,6 25 14 40 21 ZZW 1006,2 17 0,0
22.11.2017 02:00:00 10,1 7,7 9,6 29 16 40 21 ZZW 1006,3 16 0,0
22.11.2017 01:00:00 10,0 7,7 9,5 29 16 - - ZZW 1007,0 15 0,0
22.11.2017 00:00:00 9,3 8,2 9,1 22 12 43 23 ZZW 1007,1 4,5 0,1
21.11.2017 23:00:00 9,8 8,1 9,3 22 12 40 21 ZZW 1007,8 9 0,0
21.11.2017 22:00:00 10,0 8,3 9,7 25 14 - - ZZW 1008,1 12 0,0
21.11.2017 21:00:00 10,3 8,7 10,0 22 12 40 21 ZZW 1008,2 10 0,0
21.11.2017 20:00:00 10,7 9,1 10,4 25 14 43 23 ZW 1008,6 10 0,0
21.11.2017 19:00:00 11,0 9,8 10,8 25 14 - - ZW 1008,5 7 0,0
21.11.2017 18:00:00 11,5 10,4 11,2 25 14 40 21 ZW 1008,6 6 0,1
21.11.2017 17:00:00 11,6 10,7 11,3 25 14 47 25 WZW 1008,6 3,9 0,1
21.11.2017 16:00:00 11,5 10,9 11,4 25 14 - - WZW 1008,6 2,8 0,1
21.11.2017 15:00:00 11,8 11,2 11,6 25 14 40 21 ZW 1008,5 2,9 0,1
21.11.2017 14:00:00 12,0 11,3 11,8 22 12 36 19 ZW 1008,6 6 0,2
21.11.2017 13:00:00 11,5 11,1 11,5 18 10 - - ZZW 1009,1 2,1 0,4
21.11.2017 12:00:00 11,3 11,0 11,3 14 8 22 12 ZW 1009,7 1,8 1,1
21.11.2017 11:00:00 11,3 10,8 11,2 14 8 29 16 ZW 1010,2 2,6 0,5
21.11.2017 10:00:00 11,1 10,6 11,0 14 8 - - ZW 1010,3 3,7 0,7
21.11.2017 09:00:00 11,0 10,5 10,7 18 10 25 14 ZW 1010,1 4,0 1,2
21.11.2017 08:00:00 10,7 10,3 10,5 14 8 22 12 ZW 1009,9 2,6 0,3
21.11.2017 07:00:00 10,8 10,2 10,5 14 8 - - ZW 1009,8 5 0,0
21.11.2017 06:00:00 10,6 10,2 10,2 11 6 18 10 WZW 1009,9 4,5 0,0
21.11.2017 05:00:00 10,6 10,2 10,3 14 8 22 12 WZW 1009,8 4,8 0,0
21.11.2017 04:00:00 10,5 10,0 10,1 14 8 - - WZW 1009,6 6 0,1
21.11.2017 03:00:00 10,3 9,7 9,9 11 6 22 12 WZW 1009,5 7 0,0
21.11.2017 02:00:00 10,5 9,5 9,9 18 10 29 16 W 1009,6 17 0,0
21.11.2017 01:00:00 10,7 10,2 10,3 14 8 - - W 1009,1 4,9 0,2
21.11.2017 00:00:00 10,7 10,3 10,4 18 10 29 16 WZW 1008,7 3,5 0,1
20.11.2017 23:00:00 10,5 10,1 10,1 14 8 25 14 WZW 1008,6 4,6 0,3
20.11.2017 22:00:00 10,2 9,7 9,7 18 10 - - ZW 1008,7 3,7 0,3
20.11.2017 21:00:00 9,2 8,8 8,5 18 10 25 14 ZW 1008,6 4,6 1,3
20.11.2017 20:00:00 7,9 7,5 7,5 18 10 29 16 ZZW 1008,8 5 2,2
20.11.2017 19:00:00 7,0 6,6 6,6 14 8 - - ZZW 1009,1 3,5 1,2
20.11.2017 18:00:00 6,3 5,9 5,9 22 12 29 16 Z 1009,7 6 0,9
20.11.2017 17:00:00 5,6 5,1 5,2 18 10 32 18 Z 1010,6 4,5 0,9
20.11.2017 16:00:00 5,0 4,5 4,7 18 10 - - Z 1011,5 4,4 1,6
20.11.2017 15:00:00 4,6 4,0 4,3 18 10 29 16 Z 1012,7 8 1,1
20.11.2017 14:00:00 4,2 3,4 4,1 18 10 29 16 Z 1013,9 8 0,5
20.11.2017 13:00:00 4,3 3,5 4,3 18 10 - - Z 1015,5 9 0,5
20.11.2017 12:00:00 4,1 3,2 4,1 14 8 25 14 ZZW 1016,6 9 0,3
20.11.2017 11:00:00 4,3 3,2 4,2 18 10 29 16 ZZW 1017,2 11 0,4
20.11.2017 10:00:00 4,6 3,8 4,5 18 10 - - ZZW 1017,8 9 0,6
20.11.2017 09:00:00 4,6 3,7 4,4 14 8 25 14 ZW 1018,2 8 0,6
20.11.2017 08:00:00 5,1 2,9 4,6 18 10 29 16 ZW 1018,5 18 0,0
20.11.2017 07:00:00 5,1 3,5 4,6 14 8 - - ZW 1018,3 20 0,0
20.11.2017 06:00:00 5,4 4,4 5,1 14 8 29 16 ZW 1018,4 21 0,0
20.11.2017 05:00:00 5,1 3,6 4,6 18 10 25 14 ZW 1018,4 22 0,0
20.11.2017 04:00:00 5,4 3,7 4,7 14 8 - - WZW 1018,6 21 0,0
20.11.2017 03:00:00 5,2 3,7 4,7 14 8 22 12 WZW 1019,1 24 0,0
20.11.2017 02:00:00 4,6 3,3 3,7 14 8 22 12 WZW 1019,3 27 0,0
20.11.2017 01:00:00 4,6 3,2 3,5 14 8 - - W 1019,6 25 0,0
20.11.2017 00:00:00 4,5 3,1 3,5 18 10 25 14 WZW 1019,5 29 0,0
19.11.2017 23:00:00 4,5 2,9 3,6 14 8 22 12 WZW 1019,5 24 0,0
19.11.2017 22:00:00 4,2 2,7 2,8 14 8 - - WZW 1019,3 26 0,0
19.11.2017 21:00:00 4,2 2,4 3,2 14 8 29 16 W 1018,8 33 0,0
19.11.2017 20:00:00 4,7 2,8 3,5 18 10 25 14 W 1018,1 26 0,0
19.11.2017 19:00:00 5,1 2,4 3,7 14 8 - - W 1017,7 26 0,0
19.11.2017 18:00:00 5,9 2,9 4,9 14 8 40 21 W 1017,3 37 0,0
19.11.2017 17:00:00 6,1 3,2 4,6 18 10 25 14 W 1016,7 24 0,0
19.11.2017 16:00:00 6,8 3,3 5,8 18 10 - - W 1016,3 33 0,0
19.11.2017 15:00:00 7,5 3,8 6,5 18 10 43 23 WNW 1015,9 23 1,5
19.11.2017 14:00:00 7,4 4,6 6,3 18 10 58 31 WNW 1015,7 25 1,9
19.11.2017 13:00:00 7,6 4,8 7,3 18 10 - - W 1015,3 29 0,1
19.11.2017 12:00:00 8,1 4,3 8,4 22 12 32 18 W 1014,9 33 0,0
19.11.2017 11:00:00 6,8 4,4 7,0 22 12 36 19 W 1014,7 29 0,1
19.11.2017 10:00:00 5,7 3,6 5,6 18 10 - - W 1014,5 18 0,1
19.11.2017 09:00:00 4,1 2,7 3,1 18 10 29 16 WZW 1014,0 34 0,0
19.11.2017 08:00:00 3,1 2,2 2,3 18 10 32 18 WZW 1013,9 33 0,0
19.11.2017 07:00:00 4,1 2,3 3,1 22 12 - - W 1013,5 50 0,0
19.11.2017 06:00:00 3,6 2,3 2,9 18 10 25 14 WZW 1013,2 31 0,0
19.11.2017 05:00:00 4,0 2,2 3,5 18 10 29 16 W 1013,3 43 0,0
19.11.2017 04:00:00 3,9 2,1 3,0 14 8 - - WZW 1013,3 39 0,0
19.11.2017 03:00:00 3,6 2,0 2,4 14 8 22 12 WZW 1013,6 42 0,0
19.11.2017 02:00:00 3,9 2,6 3,2 11 6 18 10 WZW 1013,5 37 0,0
19.11.2017 01:00:00 4,0 2,5 3,3 14 8 - - WZW 1013,9 32 0,0
19.11.2017 00:00:00 4,0 2,5 2,4 14 8 18 10 WZW 1014,0 35 0,0
18.11.2017 23:00:00 4,6 3,2 3,7 14 8 25 14 ZW 1014,2 35 0,0
18.11.2017 22:00:00 4,1 2,8 3,3 18 10 - - WZW 1014,4 31 0,0
18.11.2017 21:00:00 4,7 3,4 3,8 14 8 18 10 WZW 1014,7 34 0,0
18.11.2017 20:00:00 4,9 3,5 4,2 14 8 22 12 WZW 1014,8 42 0,0
18.11.2017 19:00:00 5,1 3,9 4,4 14 8 - - WZW 1014,9 41 0,0
18.11.2017 18:00:00 5,3 3,6 4,7 18 10 25 14 WZW 1015,3 44 0,0
18.11.2017 17:00:00 5,2 3,7 4,4 11 6 22 12 W 1015,2 50 0,0

tt = temperatuur
td = dauwpunt
tt 5cm = temperatuur 5cm
ff = windsnelheid
fx = windstoten
dd = windrichting
ppp = luchtdruk
vv = zicht
rr = neerslag

Weerstations in de omgeving